カタログに戻る

STARLINK-35647

運用中通信VLEO
NORAD 66388·PAYLOAD·🇺🇸 United States

打ち上げ Nov 8, 2025 から Cape Canaveral Space Force Station

Loading…

次のパス (今後24時間)

TLE

最新Source: CelesTrak SupGP

元期: Sep 15, 2026, 03:56 UTC

1 66388C 25257J   26258.16437500 -.00010020  00000+0 -29616-3 0  2580
2 66388  53.1592  54.9649 0001199  89.1132 164.5043 15.34382064    19

AllMySatでSTARLINK-35647をリアルタイム追跡

Download on the App Store